Date,TemperatureHighF,TemperatureAvgF,TemperatureLowF,DewpointHighF,DewpointAvgF,DewpointLowF,HumidityHigh,HumidityAvg,HumidityLow,PressureMaxIn,PressureMinIn,WindSpeedMaxMPH,WindSpeedAvgMPH,GustSpeedMaxMPH,PrecipitationSumIn
2013-1-1,77,70,64,65,63,60,94,78,64,30.16,30.01,16,2,16,0.05
2013-1-2,82,70,60,70,65,59,98,85,64,30.07,29.95,6,0,6,0.00
2013-1-3,82,72,65,71,67,64,97,84,61,30.10,29.99,8,0,11,0.00
2013-1-4,84,72,64,75,69,63,98,89,67,30.19,30.06,0,0,0,0.00
2013-1-5,79,70,66,73,68,65,97,92,78,30.22,30.11,0,0,0,0.04
2013-1-6,80,73,65,73,69,64,98,89,74,30.16,30.02,16,2,16,0.01
2013-1-7,78,70,65,71,68,65,98,91,76,30.13,30.03,0,0,0,0.01
2013-1-8,80,74,66,74,70,65,98,89,74,30.16,30.04,14,2,18,0.05
2013-1-9,80,76,73,73,72,70,91,85,77,30.24,30.12,18,4,21,0.00
2013-1-10,79,74,68,70,68,65,94,81,66,30.26,30.14,18,3,18,0.00
2013-1-11,79,73,64,70,68,63,97,84,70,30.22,30.11,14,2,14,0.00
2013-1-12,79,73,65,72,68,63,97,85,69,30.15,30.05,14,2,15,0.02
2013-1-13,79,71,64,70,66,62,97,84,65,30.09,30.03,15,2,18,0.00
2013-1-14,79,70,62,67,64,61,97,83,64,30.14,30.08,14,2,15,0.00
2013-1-15,78,70,62,71,66,61,100,87,71,30.11,30.01,8,0,10,0.02
2013-1-16,79,70,61,71,66,60,98,89,73,30.07,29.98,12,1,13,0.00
2013-1-17,80,69,60,72,66,55,98,89,75,30.08,29.94,22,1,23,0.04
2013-1-18,69,62,53,62,55,48,86,77,65,30.21,30.08,15,1,15,0.00
2013-1-19,72,67,62,68,64,59,97,91,84,30.19,30.06,8,0,8,0.10
2013-1-20,83,71,64,72,67,63,99,88,59,30.12,29.97,5,0,5,0.00
2013-1-21,83,72,65,72,67,64,98,87,65,30.03,29.92,10,0,10,0.00
2013-1-22,78,67,60,66,61,56,96,82,61,30.18,29.98,16,2,21,0.00
2013-1-23,75,64,58,63,58,55,93,80,58,30.27,30.16,11,1,12,0.00
2013-1-24,77,65,55,61,56,52,94,74,51,30.26,30.15,9,0,10,0.00
2013-1-25,76,64,54,62,57,52,95,78,52,30.26,30.14,10,1,12,0.00
2013-1-26,80,66,56,65,59,54,97,82,53,30.22,30.12,11,1,11,0.02
2013-1-27,78,69,60,68,63,58,97,82,65,30.25,30.16,12,1,13,0.01
2013-1-28,78,73,69,68,66,63,87,77,63,30.28,30.18,15,3,16,0.00
2013-1-29,78,73,65,70,68,63,97,84,70,30.20,30.08,15,2,16,0.00
2013-1-30,79,74,69,69,67,65,93,81,69,30.09,29.93,18,3,22,0.00
2013-1-31,74,66,58,72,62,46,96,85,63,30.15,29.92,15,1,18,0.01
2013-2-1,74,62,50,60,51,41,87,68,54,30.24,30.13,14,2,14,0.00
2013-2-2,73,62,53,58,52,42,94,71,52,30.23,30.08,15,1,15,0.02
2013-2-3,75,62,51,58,51,43,97,71,38,30.15,30.03,11,1,14,0.00
2013-2-4,76,60,47,58,51,44,94,75,43,30.12,29.99,2,0,2,0.00
2013-2-5,80,66,53,64,59,52,97,81,51,30.06,29.96,9,0,9,0.02
2013-2-6,78,68,59,69,63,58,98,85,64,30.08,29.99,10,1,11,0.01
2013-2-7,80,70,60,69,64,59,97,82,60,30.04,29.91,11,1,11,0.00
2013-2-8,85,73,66,74,69,60,97,87,65,30.00,29.88,9,0,11,0.01
2013-2-9,78,70,62,70,64,58,97,82,68,30.14,29.99,13,1,14,0.02
2013-2-10,76,70,62,66,63,60,94,78,62,30.21,30.11,18,4,20,0.00
2013-2-11,78,71,62,68,65,60,96,81,70,30.18,30.08,15,3,15,0.00
2013-2-12,87,72,62,71,67,61,98,84,54,30.09,29.94,13,1,13,0.02
2013-2-13,86,76,68,74,70,66,97,85,62,29.98,29.87,14,1,14,0.01
2013-2-14,87,73,62,75,68,60,96,87,64,29.99,29.83,26,2,26,0.51
2013-2-15,72,66,62,70,65,61,98,96,89,29.99,29.91,8,0,10,0.39
2013-2-16,76,65,54,67,58,47,98,80,46,30.06,29.85,16,2,19,0.03
2013-2-17,60,51,44,47,35,27,81,56,34,30.28,30.05,22,4,22,0.00
2013-2-18,68,58,45,58,48,37,87,69,56,30.28,30.17,16,2,16,0.00
2013-2-19,76,68,55,67,62,53,96,82,68,30.17,30.05,15,3,20,0.02
2013-2-20,80,70,63,68,65,62,98,85,58,30.08,29.98,12,1,12,0.00
2013-2-21,79,71,63,69,66,62,98,85,67,30.06,29.96,11,2,13,0.00
2013-2-22,80,74,66,72,70,64,96,86,69,30.07,29.98,16,3,18,0.00
2013-2-23,82,76,71,74,71,69,96,85,73,30.01,29.88,14,2,14,0.00
2013-2-24,89,77,70,77,72,68,98,84,52,29.97,29.86,0,0,0,0.00
2013-2-25,84,76,68,74,71,67,97,85,68,29.89,29.77,14,2,15,0.00
2013-2-26,85,79,75,74,72,71,92,82,67,29.87,29.77,19,2,19,0.00
2013-2-27,76,70,65,74,68,64,96,91,74,29.94,29.83,8,0,9,0.33
2013-2-28,72,64,59,65,58,53,97,79,58,29.98,29.87,12,1,13,0.00
2013-3-1,66,62,58,57,54,49,89,76,68,29.97,29.87,12,1,12,0.00
2013-3-2,69,57,48,50,46,43,88,67,48,30.01,29.92,20,2,22,0.01
2013-3-3,65,55,48,50,46,43,89,72,50,30.11,29.94,15,1,15,0.01
2013-3-4,68,54,42,47,42,36,94,68,33,30.19,30.08,16,1,16,0.00
2013-3-5,75,62,47,60,54,45,97,77,53,30.16,30.05,13,1,13,0.02
2013-3-6,79,65,52,67,55,36,96,72,37,30.08,29.93,18,1,18,0.00
2013-3-7,72,58,45,52,45,38,93,65,39,30.16,30.05,13,1,13,0.00
2013-3-8,77,63,50,57,52,46,96,71,38,30.17,30.06,13,0,13,0.00
2013-3-9,76,64,51,63,56,50,96,75,54,30.16,30.07,12,1,13,0.02
2013-3-10,74,67,58,62,58,54,93,74,60,30.13,30.02,13,2,18,0.00
2013-3-11,75,70,64,64,62,59,92,76,66,30.07,29.92,15,4,15,0.00
2013-3-12,83,72,61,71,66,59,96,83,62,29.98,29.88,13,1,15,0.02
2013-3-13,77,66,55,66,56,47,94,73,41,30.10,29.95,15,2,19,0.00
2013-3-14,74,61,52,54,48,39,93,65,29,30.18,30.06,15,2,16,0.00
2013-3-15,74,61,50,56,51,46,92,71,45,30.23,30.11,11,1,11,0.00
2013-3-16,74,63,50,62,55,49,97,76,54,30.16,30.05,12,2,12,0.02
2013-3-17,75,65,54,63,58,53,100,81,58,30.12,29.99,16,2,16,0.00
2013-3-18,78,70,60,70,66,58,96,87,72,30.05,29.93,14,2,15,0.09
2013-3-19,79,72,66,72,68,65,97,88,70,29.99,29.82,15,0,15,0.04
2013-3-20,88,72,62,72,66,61,98,82,47,29.95,29.77,10,0,13,0.01
2013-3-21,59,58,57,54,53,51,88,83,76,29.91,29.91,0,0,0,0.00
2013-3-22,75,67,55,69,62,53,95,85,68,29.97,29.86,16,3,16,0.00
2013-3-23,86,78,69,75,72,67,97,83,64,29.95,29.78,14,2,16,0.01
2013-3-24,89,80,72,76,73,70,96,82,61,29.86,29.67,20,3,22,0.00
2013-3-25,80,74,63,73,64,40,96,74,43,29.98,29.72,15,1,15,0.21
2013-3-26,69,60,50,50,43,36,82,55,35,30.19,29.97,20,4,20,0.02
2013-3-27,70,56,44,50,43,38,84,61,42,30.23,30.14,15,2,16,0.00
2013-3-28,76,61,47,54,47,37,92,65,27,30.24,30.12,11,1,14,0.00
2013-3-29,76,64,53,57,52,44,87,66,42,30.26,30.17,13,2,14,0.00
2013-3-30,74,65,54,60,55,50,95,73,45,30.23,30.13,14,2,14,0.00
2013-3-31,79,68,56,67,62,54,96,81,61,30.16,30.01,16,3,16,0.00
2013-4-1,88,74,65,72,68,63,96,84,52,30.02,29.92,13,1,14,0.44
2013-4-2,86,72,63,71,66,62,98,83,50,30.06,29.96,10,0,13,0.00
2013-4-3,82,74,66,71,68,64,97,83,65,30.04,29.95,16,3,19,0.00
2013-4-4,84,75,67,74,70,65,96,86,70,30.01,29.88,18,3,22,0.44
2013-4-5,72,68,65,70,66,63,97,94,88,29.95,29.79,10,1,14,1.42
2013-4-6,78,68,58,67,62,57,96,82,65,30.05,29.90,14,2,16,0.00
2013-4-7,76,70,62,70,65,60,96,85,73,30.10,29.98,11,1,13,0.24
2013-4-8,80,71,61,68,63,59,96,77,53,30.09,30.01,15,1,15,0.00
2013-4-9,79,72,63,70,66,62,97,83,65,30.11,30.01,15,3,15,0.00
2013-4-10,82,76,67,73,70,65,96,84,71,30.07,29.95,20,4,20,0.01
2013-4-11,82,78,76,74,72,71,88,83,75,29.98,29.86,19,6,20,0.00
2013-4-12,87,81,77,78,75,73,91,83,72,29.93,29.83,14,3,15,0.21
2013-4-13,85,79,75,77,74,72,91,84,70,29.95,29.84,13,2,13,0.00
2013-4-14,86,80,73,76,74,71,96,83,66,29.93,29.85,14,3,18,0.00
2013-4-15,88,78,72,78,73,69,95,87,65,30.02,29.90,11,1,12,0.20
2013-4-16,85,78,70,78,73,68,96,86,71,30.08,29.98,12,2,12,0.06
2013-4-17,83,78,72,75,72,69,94,82,70,30.08,29.98,14,2,14,0.00
2013-4-18,85,79,72,74,72,69,92,79,65,30.02,29.94,13,3,14,0.00
2013-4-19,86,81,76,75,73,70,86,77,64,30.01,29.92,16,5,19,0.00
2013-4-20,94,80,73,78,73,70,94,82,45,30.06,29.90,32,0,32,0.24
2013-4-21,83,77,72,75,72,70,96,87,69,30.05,29.95,12,2,15,0.04